Hourly Data Report for March 29, 2006

TORONTO CITY
ONTARIO

43°40'00.000" N
79°24'00.000" W
112.50 m
6158355
71508
XTO

Download Data

Hourly Data (March 2006)
Hourly Data Report for March 29, 2006
TIME
LST
Temp Definition
°C
Dew Point Definition
°C
Rel Hum Definition
%
Precip. Amount Definition
mm

Wind Dir Definition
10's deg

Wind Spd Definition
km/h
Visibility Definition
km
Stn Press Definition
kPa
Hmdx Definition


Wind Chill Definition


Weather Definition


00:00 5.0 -4.0 52   LegendMM LegendMM   100.90     LegendNANA
01:00 5.3 -3.7 52   LegendMM LegendMM   100.93     LegendNANA
02:00 6.1 -5.6 43   LegendMM LegendMM   100.94     LegendNANA
03:00 5.6 -7.5 38   LegendMM LegendMM   100.92     LegendNANA
04:00 5.8 -8.2 36   LegendMM LegendMM   100.92     LegendNANA
05:00 4.1 -4.9 52   LegendMM LegendMM   100.96     LegendNANA
06:00 3.0 -4.3 59   LegendMM LegendMM   101.08     LegendNANA
07:00 4.0 -4.6 53   LegendMM LegendMM   101.13     LegendNANA
08:00 7.1 -5.2 41   LegendMM LegendMM   101.16     LegendNANA
09:00 9.7 -4.8 36   LegendMM LegendMM   101.17     LegendNANA
10:00 11.1 -4.7 33   LegendMM LegendMM   101.20     LegendNANA
11:00 11.3 -6.0 29   LegendMM LegendMM   101.20     LegendNANA
12:00 11.9 -5.0 30   LegendMM LegendMM   101.17     LegendNANA
13:00 12.7 -3.4 32   LegendMM LegendMM   101.15     LegendNANA
14:00 12.3 -3.3 34   LegendMM LegendMM   101.10     LegendNANA
15:00 12.5 -3.2 33   LegendMM LegendMM   101.06     LegendNANA
16:00 12.2 -3.0 34   LegendMM LegendMM   101.02     LegendNANA
17:00 12.4 -2.2 36   LegendMM LegendMM   100.98     LegendNANA
18:00 11.7 -2.6 37   LegendMM LegendMM   100.99     LegendNANA
19:00 9.8 -2.3 43   LegendMM LegendMM   101.01     LegendNANA
20:00 9.7 -1.5 46   LegendMM LegendMM   101.03     LegendNANA
21:00 9.7 -1.0 47   LegendMM LegendMM   101.06     LegendNANA
22:00 8.8 -0.4 52   LegendMM LegendMM   101.08     LegendNANA
23:00 7.9 0.0 57   LegendMM LegendMM   101.09     LegendNANA

Notes on Data Quality.

Legend

  • E = Estimated
  • M = Missing
  • NA = Not Available*
  • [empty] = Indicates an unobserved value
Date modified: